Regional Weather Roundup
Issued by NWS State College, PA

Home | Current Version | Previous Version | Text Only | Print | Product List | Glossary Off
Versions: 1 2 3 4 5 6 7 8 9 10 11 12 13 14 15 16 17 18 19 20 21 22 23 24 25 26 27 28 29 30 31 32 33 34 35 36 37 38 39 40 41 42 43 44 45 46 47 48 49 50

000
ASUS41 KCTP 011610
RWRCTP

REGIONAL WEATHER ROUNDUP
NATIONAL WEATHER SERVICE STATE COLLEGE PA
1100 AM EST SUN FEB 01 2015

Note: "fair" indicates few or no clouds below 12,000 feet with no
significant weather and/or obstructions to visibility.

* = STATION THAT DOES NOT REPORT PRECIPITATION /E.G. RAIN...SNOW...ETC/
    THUNDER OR FOG.

PAZ002>004-007>009-013>016-020>023-029>032-011700-
WESTERN PENNSYLVANIA

CITY           SKY/WX    TMP DP  RH WIND       PRES   REMARKS
ERIE           LGT SNOW  28  24  85 NE10      30.14F VSB 3/4
MEADVILLE      SNOW      27  23  85 E3        30.09F VSB 1/2
FRANKLIN*      CLOUDY    27  21  80 S5        30.11F VSB 1
NEW CASTLE     LGT SNOW  28  26  92 CALM      30.12F FOG
BEAVER COUNTY  LGT SNOW  28  27  93 SE3       30.10F
BUTLER*        CLOUDY    28  25  86 SE5       30.13F
PITTSBURGH INT LGT SNOW  30  27  88 SE6       30.11F FOG
PITTSBURGH     CLOUDY    29  24  82 S7        30.11F HAZE
INDIANA*       CLOUDY    28  28 100 SW5       30.16F FOG
LATROBE        LGT SNOW  30  30 100 SW6       30.15F
WASHINGTON CO* CLOUDY    30  27  86 S5        30.13F
$$

PAZ004>006-010>012-017>019-024>028-033>037-041-042-045-046-049>053-011700-
CENTRAL PENNSYLVANIA

CITY           SKY/WX    TMP DP  RH WIND       PRES   REMARKS
BRADFORD       CLOUDY    24  19  81 CALM      30.08F HAZE
DUBOIS         CLOUDY    25  22  88 CALM      30.09F FOG
CLEARFIELD     LGT SNOW  26  22  84 CALM      30.13F FOG
JOHNSTOWN      LGT SNOW  27  23  85 SW9       30.07F FOG
ALTOONA        LGT SNOW  29  26  89 SW6       30.13F FOG
STATE COLLEGE  LGT SNOW  27  23  86 CALM      30.16F
WILLIAMSPORT   CLOUDY    28  17  63 SW3       30.20F
SELINSGROVE    CLOUDY    29  19  66 SE3       30.22F
FT INDIANTOWN  PTSUNNY   30  18  59 CALM      30.22F
CAPITAL CITY   CLOUDY    32  17  54 E3        30.22F
HARRISBURG     CLOUDY    33  17  51 CALM      30.22F
YORK           CLOUDY    36  17  46 CALM      30.21F
$$

PAZ038>040-043-044-047-048-054-055-060>062-067>071-011700-
EASTERN PENNSYLVANIA

CITY           SKY/WX    TMP DP  RH WIND       PRES   REMARKS
SCRANTON       CLOUDY    27  15  61 SW9       30.16S
MOUNT POCONO   CLOUDY    24  15  68 W9        30.09R WCI  14
ALLENTOWN      CLOUDY    31  18  58 SW5       30.21F
QUAKERTOWN*    CLOUDY    34  18  51 W7        30.21F
READING        CLOUDY    31  20  63 SW7       30.23S
LANCASTER      CLOUDY    28  20  71 E3        30.23F
COATESVILLE    CLOUDY    32  28  86 CALM      30.23F
POTTSTOWN      CLOUDY    33  19  56 W9        30.24F
BLUE BELL      MOSUNNY   36  19  51 W5        30.23F
DOYLESTOWN     MOSUNNY   33  19  56 W5        30.21F
WILLOW GROVE   NOT AVBL
NORTH PHILA    MOSUNNY   39  16  39 NW8       30.25F
PHILADELPHIA   CLOUDY    35  19  52 W12       30.26F
$$



USA.gov is the U.S. government's official web portal to all federal, state and local government web resources and services.